NORTHEAST SUFFOLK  -  Winter Weather Advisory Winter Weather Advisory        NORTHERN NASSAU  -  Winter Weather Advisory Winter Weather Advisory        NORTHWEST SUFFOLK  -  Winter Weather Advisory Winter Weather Advisory        SOUTHEAST SUFFOLK  -  Winter Weather Advisory Winter Weather Advisory        SOUTHERN NASSAU  -  Winter Weather Advisory Winter Weather Advisory        SOUTHWEST SUFFOLK  -  Winter Weather Advisory Winter Weather Advisory      

Active alerts

Northern Nassau
  Details for Northern Nassau Winter Weather Advisory
Southern Nassau
  Details for Southern Nassau Winter Weather Advisory
Northwest Suffolk
  Details for Northwest Suffolk Winter Weather Advisory
Southwest Suffolk
  Details for Southwest Suffolk Winter Weather Advisory
Northeast Suffolk
  Details for Northeast Suffolk Winter Weather Advisory
Southeast Suffolk
  Details for Southeast Suffolk Winter Weather Advisory


WXM80 ListenWXM80 Stop

You find our weather info also at:

UK Metoffice

WeatherCloud

Weather Underground

Northeastern Weather Network

AWEKAS

Citizen Weather Observer Program (CWOP)

HAMweather, WeatherForYou, PWS Weather


Weather Underground History page Text

Daily Summary for August 17, 2016 Units:  English    Metric   Both
« Previous Day
Next Day »
Daily Weekly Monthly Yearly Custom
  High: Low: Average:
Temperature: 89.5 °F 75.6 °F 82.2 °F
Dew Point: 77.3 °F 66.8 °F 70.6 °F
Humidity: 86 % 49 % 69 %
Wind Speed: 9.1 mph 0.0 mph 3.3 mph
Wind Gust: 17.3 mph - -
Wind:- - WSW
Pressure: 30.01 in 29.90 in -
Precipitation: 0.00 in    
Historical Graphs
 
 
Tabular Data for August 17, 2016
Time Temperature Dew Point Pressure Wind Wind Speed Wind Gust Humidity Rainfall Rate (Hourly)
00:03 81.9 °F 77.3 °F 29.95 in South 4.7 mph 6.9 mph 86 % 0.00 in
00:08 81.9 °F 76.9 °F 29.95 in SSW 3.8 mph 8.1 mph 85 % 0.00 in
00:13 82.0 °F 77.0 °F 29.95 in South 1.2 mph 4.6 mph 85 % 0.00 in
00:18 82.0 °F 77.0 °F 29.94 in SSW 2.6 mph 8.1 mph 85 % 0.00 in
00:23 82.0 °F 77.0 °F 29.94 in SSW 5.4 mph 8.1 mph 85 % 0.00 in
00:28 82.1 °F 77.1 °F 29.94 in SW 3.0 mph 9.2 mph 85 % 0.00 in
00:34 82.1 °F 77.1 °F 29.94 in SW 3.4 mph 7.0 mph 85 % 0.00 in
00:39 82.1 °F 77.1 °F 29.93 in South 2.7 mph 8.1 mph 85 % 0.00 in
00:44 82.2 °F 77.2 °F 29.93 in SSW 2.1 mph 4.0 mph 85 % 0.00 in
00:49 82.2 °F 77.2 °F 29.93 in SW 2.9 mph 7.0 mph 85 % 0.00 in
00:54 82.2 °F 77.2 °F 29.93 in SSW 4.0 mph 10.4 mph 85 % 0.00 in
00:59 82.1 °F 77.1 °F 29.92 in SW 2.3 mph 12.7 mph 85 % 0.00 in
01:04 82.2 °F 77.2 °F 29.93 in SSW 3.6 mph 6.0 mph 85 % 0.00 in
01:09 82.2 °F 77.2 °F 29.93 in SSW 4.5 mph 7.0 mph 85 % 0.00 in
01:14 82.2 °F 77.2 °F 29.93 in ESE 1.6 mph 6.0 mph 85 % 0.00 in
01:19 82.2 °F 77.2 °F 29.92 in SSE 2.4 mph 4.6 mph 85 % 0.00 in
01:25 82.2 °F 77.2 °F 29.92 in SSW 2.8 mph 9.0 mph 85 % 0.00 in
01:30 82.1 °F 77.1 °F 29.92 in SSE 3.1 mph 4.6 mph 85 % 0.00 in
01:35 82.1 °F 77.1 °F 29.92 in SW 3.8 mph 13.8 mph 85 % 0.00 in
01:40 82.1 °F 77.1 °F 29.92 in SW 2.8 mph 8.1 mph 85 % 0.00 in
01:45 82.1 °F 77.1 °F 29.92 in SSE 6.5 mph 12.7 mph 85 % 0.00 in
01:50 82.1 °F 77.1 °F 29.92 in SSW 4.8 mph 11.5 mph 85 % 0.00 in
01:55 82.1 °F 77.1 °F 29.92 in SW 5.7 mph 8.0 mph 85 % 0.00 in
02:00 82.1 °F 77.1 °F 29.92 in SSW 3.3 mph 9.2 mph 85 % 0.00 in
02:05 82.2 °F 77.2 °F 29.92 in SSW 3.0 mph 7.0 mph 85 % 0.00 in
02:10 82.2 °F 76.9 °F 29.92 in SW 9.1 mph 9.2 mph 84 % 0.00 in
02:21 82.1 °F 75.7 °F 29.92 in SW 2.0 mph 14.0 mph 81 % 0.00 in
02:25 82.0 °F 74.5 °F 29.92 in West 6.8 mph 12.7 mph 78 % 0.00 in
02:30 82.0 °F 73.7 °F 29.92 in NW 4.3 mph 9.2 mph 76 % 0.00 in
02:35 81.9 °F 73.2 °F 29.92 in SW 6.0 mph 9.0 mph 75 % 0.00 in
02:40 81.9 °F 73.2 °F 29.92 in SSW 2.1 mph 4.6 mph 75 % 0.00 in
02:45 81.9 °F 72.8 °F 29.92 in SW 3.0 mph 9.0 mph 74 % 0.00 in
02:50 81.9 °F 72.8 °F 29.92 in SW 1.0 mph 8.0 mph 74 % 0.00 in
02:55 81.9 °F 72.4 °F 29.91 in SSW 3.8 mph 4.6 mph 73 % 0.00 in
03:06 81.8 °F 72.3 °F 29.91 in SW 3.8 mph 4.6 mph 73 % 0.00 in
03:11 81.8 °F 72.3 °F 29.91 in SSW 3.0 mph 7.0 mph 73 % 0.00 in
03:16 81.7 °F 72.2 °F 29.91 in SW 3.1 mph 5.0 mph 73 % 0.00 in
03:21 81.6 °F 72.5 °F 29.91 in SW 2.7 mph 8.1 mph 74 % 0.00 in
03:26 81.5 °F 72.4 °F 29.90 in WSW 5.1 mph 6.9 mph 74 % 0.00 in
03:31 81.4 °F 72.7 °F 29.91 in SSW 3.1 mph 9.2 mph 75 % 0.00 in
03:36 81.3 °F 72.6 °F 29.90 in West 2.1 mph 10.4 mph 75 % 0.00 in
03:41 81.2 °F 72.9 °F 29.90 in SW 1.9 mph 8.1 mph 76 % 0.00 in
03:46 81.2 °F 72.9 °F 29.90 in WSW 3.8 mph 11.5 mph 76 % 0.00 in
03:57 80.9 °F 73.0 °F 29.90 in WSW 5.5 mph 10.4 mph 77 % 0.00 in
04:02 80.8 °F 72.9 °F 29.90 in SSW 3.6 mph 6.9 mph 77 % 0.00 in
04:07 80.7 °F 72.8 °F 29.90 in SW 1.5 mph 7.0 mph 77 % 0.00 in
04:12 80.6 °F 72.7 °F 29.90 in SSE 3.4 mph 11.5 mph 77 % 0.00 in
04:17 80.5 °F 72.6 °F 29.90 in SW 4.2 mph 8.1 mph 77 % 0.00 in
04:22 80.5 °F 72.6 °F 29.91 in WNW 8.2 mph 8.2 mph 77 % 0.00 in
04:27 80.4 °F 72.9 °F 29.91 in SW 5.0 mph 10.4 mph 78 % 0.00 in
04:33 80.4 °F 72.9 °F 29.91 in WSW 2.9 mph 11.5 mph 78 % 0.00 in
04:38 80.3 °F 73.2 °F 29.91 in WSW 2.7 mph 7.0 mph 79 % 0.00 in
04:43 80.2 °F 72.7 °F 29.91 in West 3.6 mph 7.0 mph 78 % 0.00 in
04:48 80.1 °F 72.6 °F 29.92 in SW 6.6 mph 10.4 mph 78 % 0.00 in
04:53 80.0 °F 72.5 °F 29.91 in WSW 4.2 mph 9.2 mph 78 % 0.00 in
04:58 79.9 °F 72.4 °F 29.91 in WSW 3.4 mph 8.0 mph 78 % 0.00 in
05:03 79.9 °F 72.4 °F 29.91 in WSW 6.7 mph 12.0 mph 78 % 0.00 in
05:08 79.8 °F 72.3 °F 29.91 in WNW 8.7 mph 11.5 mph 78 % 0.00 in
05:13 79.8 °F 72.3 °F 29.91 in SW 4.8 mph 9.2 mph 78 % 0.00 in
05:18 79.7 °F 72.2 °F 29.91 in SW 8.4 mph 13.8 mph 78 % 0.00 in
05:24 79.7 °F 72.6 °F 29.91 in SW 4.0 mph 9.0 mph 79 % 0.00 in
05:29 79.6 °F 72.5 °F 29.91 in SW 3.5 mph 10.4 mph 79 % 0.00 in
05:34 79.6 °F 72.5 °F 29.91 in SW 6.6 mph 12.0 mph 79 % 0.00 in
05:39 79.4 °F 72.3 °F 29.91 in NW 7.5 mph 11.5 mph 79 % 0.00 in
05:43 79.3 °F 72.2 °F 29.91 in SSW 6.4 mph 15.0 mph 79 % 0.00 in
05:48 79.3 °F 72.6 °F 29.91 in SW 3.9 mph 8.1 mph 80 % 0.00 in
05:53 79.2 °F 72.5 °F 29.91 in SW 5.4 mph 6.0 mph 80 % 0.00 in
05:58 79.0 °F 72.3 °F 29.91 in WSW 5.5 mph 6.0 mph 80 % 0.00 in
06:03 78.9 °F 72.2 °F 29.91 in WSW 4.0 mph 8.1 mph 80 % 0.00 in
06:09 78.9 °F 72.2 °F 29.92 in SSW 7.5 mph 12.0 mph 80 % 0.00 in
06:14 78.8 °F 72.5 °F 29.92 in WSW 3.6 mph 6.9 mph 81 % 0.00 in
06:19 78.7 °F 72.4 °F 29.91 in SSW 5.7 mph 11.5 mph 81 % 0.00 in
06:24 78.7 °F 72.4 °F 29.92 in SSW 6.4 mph 11.5 mph 81 % 0.00 in
06:29 78.6 °F 72.3 °F 29.92 in SW 5.1 mph 8.1 mph 81 % 0.00 in
06:34 78.6 °F 72.3 °F 29.92 in WSW 5.8 mph 6.9 mph 81 % 0.00 in
06:39 78.6 °F 72.3 °F 29.92 in WSW 3.6 mph 8.1 mph 81 % 0.00 in
06:44 78.5 °F 72.2 °F 29.92 in WSW 8.5 mph 13.0 mph 81 % 0.00 in
06:49 78.6 °F 72.3 °F 29.93 in WSW 4.5 mph 8.1 mph 81 % 0.00 in
06:54 78.6 °F 72.3 °F 29.93 in SW 4.0 mph 8.0 mph 81 % 0.00 in
07:00 78.6 °F 72.3 °F 29.93 in SSW 5.2 mph 8.1 mph 81 % 0.00 in
07:10 78.6 °F 72.6 °F 29.93 in SSW 3.1 mph 8.0 mph 82 % 0.00 in
07:15 78.6 °F 72.6 °F 29.93 in SW 3.7 mph 4.6 mph 82 % 0.00 in
07:20 78.6 °F 72.6 °F 29.93 in WNW 6.9 mph 16.1 mph 82 % 0.00 in
07:25 78.7 °F 72.7 °F 29.93 in NW 5.0 mph 11.0 mph 82 % 0.00 in
07:30 78.7 °F 72.7 °F 29.93 in WNW 4.9 mph 8.1 mph 82 % 0.00 in
07:35 78.8 °F 72.8 °F 29.93 in WSW 4.7 mph 6.9 mph 82 % 0.00 in
07:40 78.8 °F 72.8 °F 29.93 in SSW 6.1 mph 10.4 mph 82 % 0.00 in
07:45 78.9 °F 72.9 °F 29.93 in West 3.6 mph 4.6 mph 82 % 0.00 in
07:56 79.0 °F 73.0 °F 29.93 in WSW 7.0 mph 13.0 mph 82 % 0.00 in
08:01 79.0 °F 73.0 °F 29.93 in WSW 5.8 mph 8.1 mph 82 % 0.00 in
08:06 79.1 °F 73.1 °F 29.93 in WSW 6.5 mph 10.4 mph 82 % 0.00 in
08:11 79.2 °F 73.2 °F 29.94 in West 7.3 mph 11.5 mph 82 % 0.00 in
08:16 79.2 °F 72.9 °F 29.94 in SE 5.5 mph 8.1 mph 81 % 0.00 in
08:21 79.2 °F 72.5 °F 29.94 in WNW 2.7 mph 5.0 mph 80 % 0.00 in
08:26 79.3 °F 73.0 °F 29.94 in West 4.9 mph 10.4 mph 81 % 0.00 in
08:31 79.3 °F 72.6 °F 29.94 in SSW 3.6 mph 9.0 mph 80 % 0.00 in
08:36 79.3 °F 72.2 °F 29.94 in WSW 7.0 mph 13.8 mph 79 % 0.00 in
08:41 79.2 °F 71.4 °F 29.95 in West 3.8 mph 11.5 mph 77 % 0.00 in
08:46 79.3 °F 71.8 °F 29.95 in West 3.6 mph 3.6 mph 78 % 0.00 in
08:51 79.3 °F 71.8 °F 29.95 in WSW 2.2 mph 7.0 mph 78 % 0.00 in
08:57 79.3 °F 71.1 °F 29.95 in NW 5.0 mph 11.5 mph 76 % 0.00 in
09:02 79.4 °F 70.8 °F 29.95 in West 5.8 mph 12.7 mph 75 % 0.00 in
09:07 79.4 °F 70.0 °F 29.95 in WSW 6.7 mph 12.0 mph 73 % 0.00 in
09:12 79.5 °F 69.7 °F 29.95 in WSW 5.7 mph 9.2 mph 72 % 0.00 in
09:17 79.6 °F 69.4 °F 29.95 in West 5.2 mph 13.8 mph 71 % 0.00 in
09:22 79.6 °F 69.4 °F 29.96 in WNW 1.8 mph 6.0 mph 71 % 0.00 in
09:27 79.6 °F 69.4 °F 29.96 in SW 3.3 mph 11.5 mph 71 % 0.00 in
09:32 79.8 °F 69.6 °F 29.95 in West 5.2 mph 9.2 mph 71 % 0.00 in
09:37 80.0 °F 68.9 °F 29.95 in West 6.1 mph 10.4 mph 69 % 0.00 in
09:42 80.3 °F 69.2 °F 29.95 in West 6.1 mph 13.8 mph 69 % 0.00 in
09:48 80.7 °F 69.2 °F 29.96 in WNW 4.5 mph 9.2 mph 68 % 0.00 in
09:53 81.3 °F 68.9 °F 29.96 in NNW 5.8 mph 12.7 mph 66 % 0.00 in
09:58 82.0 °F 69.1 °F 29.96 in NW 3.4 mph 9.2 mph 65 % 0.00 in
10:03 82.4 °F 69.0 °F 29.96 in West 6.6 mph 11.5 mph 64 % 0.00 in
10:08 82.7 °F 69.3 °F 29.96 in WNW 7.3 mph 12.7 mph 64 % 0.00 in
10:13 83.2 °F 69.8 °F 29.97 in NE 4.3 mph 17.3 mph 64 % 0.00 in
10:14 83.2 °F 69.8 °F 29.97 in West 1.8 mph 17.3 mph 64 % 0.00 in
10:19 83.3 °F 68.9 °F 29.97 in NW 6.0 mph 9.2 mph 62 % 0.00 in
10:24 83.1 °F 69.2 °F 29.97 in West 3.8 mph 11.5 mph 63 % 0.00 in
10:29 82.9 °F 69.5 °F 29.97 in WNW 3.8 mph 7.0 mph 64 % 0.00 in
10:34 83.1 °F 69.2 °F 29.97 in WNW 7.3 mph 11.5 mph 63 % 0.00 in
10:39 83.4 °F 69.5 °F 29.98 in WSW 4.7 mph 15.0 mph 63 % 0.00 in
10:44 83.1 °F 68.7 °F 29.97 in SW 4.2 mph 9.2 mph 62 % 0.00 in
10:49 82.8 °F 68.4 °F 29.98 in NW 5.1 mph 10.4 mph 62 % 0.00 in
10:54 82.8 °F 68.4 °F 29.98 in NW 4.7 mph 10.0 mph 62 % 0.00 in
10:59 83.1 °F 68.7 °F 29.98 in West 5.6 mph 11.5 mph 62 % 0.00 in
11:05 83.4 °F 67.6 °F 29.98 in NW 5.5 mph 16.1 mph 59 % 0.00 in
11:10 83.8 °F 67.9 °F 29.98 in West 3.6 mph 10.4 mph 59 % 0.00 in
11:15 83.8 °F 67.4 °F 29.98 in WNW 6.4 mph 11.5 mph 58 % 0.00 in
11:20 83.9 °F 68.0 °F 29.97 in WSW 6.6 mph 11.5 mph 59 % 0.00 in
11:25 84.2 °F 69.8 °F 29.97 in WNW 5.6 mph 9.2 mph 62 % 0.00 in
11:30 84.4 °F 68.0 °F 29.98 in West 4.1 mph 11.5 mph 58 % 0.00 in
11:35 84.6 °F 67.2 °F 29.97 in WNW 4.9 mph 8.1 mph 56 % 0.00 in
11:40 84.9 °F 68.5 °F 29.97 in WSW 3.8 mph 10.4 mph 58 % 0.00 in
11:45 85.5 °F 68.0 °F 29.98 in WNW 7.4 mph 10.4 mph 56 % 0.00 in
11:50 85.4 °F 68.4 °F 29.98 in West 6.5 mph 14.0 mph 57 % 0.00 in
11:55 85.2 °F 69.3 °F 29.97 in WNW 3.8 mph 14.0 mph 59 % 0.00 in
12:01 85.3 °F 67.8 °F 29.98 in WSW 5.5 mph 12.7 mph 56 % 0.00 in
12:06 85.4 °F 67.9 °F 29.97 in West 6.0 mph 13.0 mph 56 % 0.00 in
12:11 85.7 °F 68.2 °F 29.97 in WNW 6.0 mph 12.0 mph 56 % 0.00 in
12:21 86.3 °F 68.7 °F 29.97 in WNW 5.0 mph 10.0 mph 56 % 0.00 in
12:26 86.5 °F 68.4 °F 29.97 in WNW 7.0 mph 14.0 mph 55 % 0.00 in
12:31 86.6 °F 68.0 °F 29.97 in West 6.6 mph 9.2 mph 54 % 0.00 in
12:36 86.7 °F 68.1 °F 29.97 in West 7.0 mph 13.0 mph 54 % 0.00 in
12:41 86.2 °F 68.2 °F 29.97 in West 6.0 mph 13.0 mph 55 % 0.00 in
12:46 86.2 °F 69.7 °F 29.97 in West 5.2 mph 8.0 mph 58 % 0.00 in
12:51 86.3 °F 67.7 °F 29.98 in West 7.0 mph 13.0 mph 54 % 0.00 in
12:56 86.5 °F 69.5 °F 29.97 in WNW 5.0 mph 13.0 mph 57 % 0.00 in
13:01 86.7 °F 68.6 °F 29.97 in West 1.8 mph 5.8 mph 55 % 0.00 in
13:06 86.9 °F 67.7 °F 29.97 in West 7.0 mph 15.0 mph 53 % 0.00 in
13:11 87.1 °F 69.5 °F 29.98 in WNW 5.0 mph 14.0 mph 56 % 0.00 in
13:16 87.3 °F 68.1 °F 29.98 in WSW 8.3 mph 15.0 mph 53 % 0.00 in
13:21 87.2 °F 67.4 °F 29.97 in West 6.0 mph 15.0 mph 52 % 0.00 in
13:26 87.3 °F 69.2 °F 29.97 in West 5.0 mph 12.0 mph 55 % 0.00 in
13:31 87.8 °F 69.1 °F 29.98 in WNW 7.2 mph 14.0 mph 54 % 0.00 in
13:36 87.8 °F 67.4 °F 29.98 in West 6.0 mph 15.0 mph 51 % 0.00 in
13:41 87.6 °F 68.9 °F 29.98 in WNW 2.0 mph 5.0 mph 54 % 0.00 in
13:46 87.9 °F 69.7 °F 29.98 in WSW 5.3 mph 12.0 mph 55 % 0.00 in
13:51 88.0 °F 68.7 °F 29.98 in WNW 6.0 mph 14.0 mph 53 % 0.00 in
13:56 88.0 °F 69.3 °F 29.97 in WNW 2.0 mph 10.0 mph 54 % 0.00 in
14:01 87.6 °F 67.8 °F 29.97 in SW 4.2 mph 6.9 mph 52 % 0.00 in
14:06 87.4 °F 69.2 °F 29.97 in West 2.0 mph 9.0 mph 55 % 0.00 in
14:11 87.5 °F 68.8 °F 29.97 in West 5.0 mph 13.0 mph 54 % 0.00 in
14:16 87.6 °F 69.4 °F 29.97 in West 5.0 mph 8.0 mph 55 % 0.00 in
14:21 87.9 °F 69.2 °F 29.97 in WNW 2.0 mph 9.0 mph 54 % 0.00 in
14:26 88.2 °F 69.5 °F 29.97 in WNW 5.0 mph 10.0 mph 54 % 0.00 in
14:31 88.4 °F 69.1 °F 29.97 in NW 2.5 mph 4.6 mph 53 % 0.00 in
14:36 88.5 °F 68.6 °F 29.97 in NW 3.1 mph 6.9 mph 52 % 0.00 in
14:41 88.8 °F 68.3 °F 29.97 in WNW 2.2 mph 4.0 mph 51 % 0.00 in
14:46 88.8 °F 68.3 °F 29.97 in WNW 4.7 mph 9.2 mph 51 % 0.00 in
14:51 89.0 °F 70.2 °F 29.97 in West 2.2 mph 5.0 mph 54 % 0.00 in
14:56 89.0 °F 70.2 °F 29.96 in NW 2.2 mph 5.8 mph 54 % 0.00 in
15:01 89.2 °F 68.7 °F 29.96 in WNW 2.6 mph 4.6 mph 51 % 0.00 in
15:06 89.3 °F 68.8 °F 29.96 in WSW 4.9 mph 7.0 mph 51 % 0.00 in
15:16 89.4 °F 69.5 °F 29.96 in West 2.0 mph 7.0 mph 52 % 0.00 in
15:22 89.5 °F 68.4 °F 29.95 in WNW 3.5 mph 8.1 mph 50 % 0.00 in
15:27 89.1 °F 67.5 °F 29.96 in West 4.7 mph 8.1 mph 49 % 0.00 in
15:32 88.7 °F 69.9 °F 29.95 in West 0.6 mph 3.5 mph 54 % 0.00 in
15:37 88.2 °F 67.8 °F 29.95 in WNW 3.0 mph 3.5 mph 51 % 0.00 in
15:42 88.1 °F 69.4 °F 29.95 in West 2.5 mph 4.0 mph 54 % 0.00 in
15:47 88.1 °F 68.3 °F 29.95 in West 2.7 mph 6.0 mph 52 % 0.00 in
15:52 88.3 °F 69.5 °F 29.94 in WNW 1.0 mph 3.5 mph 54 % 0.00 in
15:57 88.5 °F 70.3 °F 29.95 in North 0.2 mph 2.0 mph 55 % 0.00 in
16:02 88.7 °F 68.8 °F 29.95 in NNW 3.6 mph 9.2 mph 52 % 0.00 in
16:07 89.0 °F 67.9 °F 29.95 in WSW 3.0 mph 6.9 mph 50 % 0.00 in
16:13 89.1 °F 68.6 °F 29.95 in WNW 2.7 mph 4.6 mph 51 % 0.00 in
16:18 89.1 °F 68.0 °F 29.95 in WNW 5.6 mph 12.0 mph 50 % 0.00 in
16:23 88.8 °F 68.9 °F 29.95 in WNW 2.7 mph 9.2 mph 52 % 0.00 in
16:28 88.7 °F 70.5 °F 29.95 in North 1.5 mph 3.5 mph 55 % 0.00 in
16:43 88.3 °F 70.6 °F 29.95 in North 1.4 mph 4.0 mph 56 % 0.00 in
16:48 87.9 °F 70.2 °F 29.95 in NW 0.7 mph 5.8 mph 56 % 0.00 in
16:53 87.5 °F 69.3 °F 29.95 in North 1.7 mph 5.0 mph 55 % 0.00 in
16:58 87.6 °F 68.9 °F 29.95 in NW 2.6 mph 3.5 mph 54 % 0.00 in
17:04 87.5 °F 69.9 °F 29.95 in WNW 0.8 mph 3.5 mph 56 % 0.00 in
17:09 87.5 °F 68.3 °F 29.95 in WNW 3.4 mph 5.8 mph 53 % 0.00 in
17:14 87.5 °F 68.3 °F 29.95 in West 1.2 mph 4.6 mph 53 % 0.00 in
17:19 87.3 °F 68.1 °F 29.95 in NW 4.3 mph 8.1 mph 53 % 0.00 in
17:24 87.1 °F 67.9 °F 29.95 in WNW 1.2 mph 4.0 mph 53 % 0.00 in
17:29 86.8 °F 67.6 °F 29.95 in WNW 1.9 mph 3.5 mph 53 % 0.00 in
17:34 86.4 °F 67.8 °F 29.95 in West 3.5 mph 6.9 mph 54 % 0.00 in
17:39 86.0 °F 68.0 °F 29.95 in West 1.8 mph 3.5 mph 55 % 0.00 in
17:44 85.7 °F 68.7 °F 29.95 in NW 0.2 mph 6.9 mph 57 % 0.00 in
17:49 85.3 °F 68.3 °F 29.95 in WSW 2.8 mph 5.0 mph 57 % 0.00 in
17:55 85.0 °F 67.5 °F 29.95 in West 1.6 mph 6.9 mph 56 % 0.00 in
18:00 84.9 °F 67.5 °F 29.95 in WSW 4.0 mph 9.2 mph 56 % 0.00 in
18:05 84.7 °F 67.3 °F 29.95 in WNW 4.0 mph 6.9 mph 56 % 0.00 in
18:10 84.5 °F 68.1 °F 29.95 in West 0.8 mph 3.0 mph 58 % 0.00 in
18:15 84.3 °F 68.4 °F 29.95 in WNW 1.4 mph 3.5 mph 59 % 0.00 in
18:20 84.1 °F 68.2 °F 29.95 in NW 1.0 mph 4.0 mph 59 % 0.00 in
18:25 83.8 °F 67.9 °F 29.95 in SW 1.8 mph 5.8 mph 59 % 0.00 in
18:30 83.7 °F 67.8 °F 29.95 in West 1.3 mph 5.8 mph 59 % 0.00 in
18:35 83.4 °F 67.6 °F 29.96 in West 3.6 mph 7.0 mph 59 % 0.00 in
18:40 83.2 °F 67.4 °F 29.95 in SW 2.3 mph 5.8 mph 59 % 0.00 in
18:46 83.0 °F 67.7 °F 29.95 in Calm   5.0 mph 60 % 0.00 in
18:51 82.9 °F 68.1 °F 29.96 in NW 1.2 mph 3.5 mph 61 % 0.00 in
18:56 82.8 °F 67.5 °F 29.96 in WNW 2.0 mph 5.0 mph 60 % 0.00 in
19:01 82.6 °F 67.3 °F 29.96 in WNW 1.6 mph 2.3 mph 60 % 0.00 in
19:06 82.5 °F 67.2 °F 29.96 in West 0.1 mph 3.5 mph 60 % 0.00 in
19:11 82.4 °F 67.6 °F 29.96 in West 0.9 mph 3.5 mph 61 % 0.00 in
19:16 82.3 °F 67.5 °F 29.96 in West 1.2 mph 2.3 mph 61 % 0.00 in
19:21 82.1 °F 67.3 °F 29.96 in West 0.3 mph 3.5 mph 61 % 0.00 in
19:26 81.9 °F 67.1 °F 29.97 in West 1.1 mph 4.0 mph 61 % 0.00 in
19:31 81.7 °F 66.9 °F 29.96 in West 0.1 mph 1.2 mph 61 % 0.00 in
19:41 81.4 °F 67.1 °F 29.96 in West 0.8 mph 2.3 mph 62 % 0.00 in
19:46 81.3 °F 67.0 °F 29.96 in West 0.1 mph 1.2 mph 62 % 0.00 in
19:52 81.1 °F 66.8 °F 29.97 in West 0.3 mph 2.3 mph 62 % 0.00 in
19:57 81.0 °F 66.8 °F 29.97 in Calm   1.2 mph 62 % 0.00 in
20:02 80.9 °F 67.1 °F 29.96 in WNW 0.5 mph 2.3 mph 63 % 0.00 in
20:07 80.7 °F 67.4 °F 29.96 in WNW 0.3 mph 1.2 mph 64 % 0.00 in
20:12 80.5 °F 68.1 °F 29.97 in Calm     66 % 0.00 in
20:17 80.3 °F 69.2 °F 29.98 in NNW 1.5 mph 3.5 mph 69 % 0.00 in
20:22 80.0 °F 69.7 °F 29.98 in Calm   2.3 mph 71 % 0.00 in
20:27 79.8 °F 69.6 °F 29.98 in Calm     71 % 0.00 in
20:32 79.7 °F 69.5 °F 29.98 in Calm     71 % 0.00 in
20:37 79.6 °F 69.8 °F 29.98 in Calm     72 % 0.00 in
20:43 79.4 °F 69.6 °F 29.98 in Calm     72 % 0.00 in
20:48 79.3 °F 69.5 °F 29.99 in Calm     72 % 0.00 in
20:53 79.2 °F 69.4 °F 29.99 in Calm     72 % 0.00 in
20:58 78.9 °F 69.1 °F 29.99 in Calm     72 % 0.00 in
21:03 78.7 °F 68.9 °F 29.99 in Calm     72 % 0.00 in
21:08 78.5 °F 69.1 °F 29.99 in Calm     73 % 0.00 in
21:13 78.2 °F 68.8 °F 29.99 in Calm     73 % 0.00 in
21:18 78.0 °F 69.0 °F 30.00 in Calm     74 % 0.00 in
21:23 77.9 °F 68.9 °F 30.00 in Calm     74 % 0.00 in
21:28 77.7 °F 68.7 °F 30.00 in Calm     74 % 0.00 in
21:39 77.5 °F 68.9 °F 30.00 in Calm     75 % 0.00 in
21:44 77.4 °F 68.9 °F 30.00 in Calm     75 % 0.00 in
21:49 77.3 °F 69.1 °F 30.00 in Calm     76 % 0.00 in
21:54 77.1 °F 68.9 °F 30.01 in Calm     76 % 0.00 in
21:59 77.0 °F 68.9 °F 30.00 in Calm     76 % 0.00 in
22:04 76.9 °F 68.8 °F 30.00 in Calm     76 % 0.00 in
22:09 76.8 °F 68.7 °F 30.01 in Calm     76 % 0.00 in
22:14 76.7 °F 69.3 °F 30.01 in Calm     78 % 0.00 in
22:19 76.6 °F 68.8 °F 30.01 in Calm     77 % 0.00 in
22:25 76.5 °F 68.7 °F 30.01 in Calm     77 % 0.00 in
22:30 76.5 °F 69.5 °F 30.01 in Calm     79 % 0.00 in
22:35 76.4 °F 69.4 °F 30.00 in Calm     79 % 0.00 in
22:40 76.3 °F 69.3 °F 30.00 in Calm     79 % 0.00 in
22:45 76.2 °F 69.2 °F 30.00 in Calm     79 % 0.00 in
22:50 76.1 °F 69.1 °F 30.01 in Calm     79 % 0.00 in
22:55 76.0 °F 68.6 °F 30.00 in Calm     78 % 0.00 in
23:00 76.0 °F 68.6 °F 30.00 in Calm     78 % 0.00 in
23:05 75.9 °F 68.9 °F 30.00 in Calm     79 % 0.00 in
23:11 75.9 °F 68.9 °F 30.00 in Calm   1.2 mph 79 % 0.00 in
23:16 75.8 °F 68.8 °F 30.00 in Calm     79 % 0.00 in
23:21 75.8 °F 68.8 °F 30.00 in Calm     79 % 0.00 in
23:26 75.7 °F 68.7 °F 30.00 in Calm     79 % 0.00 in
23:31 75.7 °F 68.7 °F 30.00 in Calm     79 % 0.00 in
23:36 75.6 °F 68.6 °F 30.00 in Calm     79 % 0.00 in
23:41 75.6 °F 69.0 °F 30.00 in Calm     80 % 0.00 in
23:46 75.6 °F 69.0 °F 29.99 in Calm     80 % 0.00 in
23:51 75.6 °F 69.4 °F 29.99 in Calm     81 % 0.00 in
23:56 75.6 °F 69.4 °F 29.99 in Calm     81 % 0.00 in
Crab Meadow Weather
Compliments of Weather Underground - 3 mb

Script developed by  Jim McMurry - jmcmurry@mwt.net Adapted for the template by  Wim van der Kuil - Leuven-Template.eu

Extremes: By average annual rainfall, the wettest place in the world is Mawslynram, in Meghalaya State, India with 467 1/2 inches per annum.